CYGFM07

Last updated on Thu Oct 30 2025 00:02:23 GMT+0000 (Coordinated Universal Time)

1 41890U 16078G 25302.44132274 .00023635 00000+0 44476-3 0 9999 2 41890 34.9485 311.3572 0009835 172.8445 187.2418 15.47525839493089
UTC large
Height (km)
Speed (km/s)
/
Latitude / Longitude
Inclination (degrees)
Orbital Period (minutes)
Azimuth
Elevation
Range (km)
Doppler Factor

Next 0 passes for location: London (51.5072 / 0.1276)

Sorry there are no passes over London.